• Join FlightAware (Why Join?)
  • Login
  • US Flag GB Flag 
21:21 EDT


 

Airport Tracker/Info


-or-


 

Live Flight TrackerFlight Track Log ✈ AWE1940 ✈ 30-Apr-2013 ✈ KRSW - KCLT

Flight Track Log - Related Links

Times and Time Zones

All times are in EDT time to prevent confusion due to time zone crossing. See the AWE1940 flight status page for this flight to view local times or setup timezone preferences in your user account.

Time Position Orientation Groundspeed Altitude Reporting Facility
EDT Latitude Longitude Course Direction KTS MPH feet Rate Location/Type
19:11 26.2831 -82.0936 231° Southwest  Level FlightAware Approximate
19:11 26.4460 -81.7360 230° Southwest 261 300 6,000  Level FlightAware
19:11 26.4310 -81.7610 236° Southwest 268 308 7,000 2,220 Climbing FlightAware
19:12 26.1985 -82.2076 230° Southwest  Level FlightAware Approximate
19:12 26.4190 -81.7790 233° Southwest 271 312 7,700  Level FlightAware
19:13 26.3770 -81.8460 235° Southwest 287 330 10,200 2,220 Climbing FlightAware
19:13 26.3530 -81.8820 233° Southwest 307 353 10,900 540 Climbing FlightAware
19:14 26.3190 -81.9350 234° Southwest 307 353 10,900 2,280 Level FlightAware
19:14 26.3340 -81.9730 294° West 332 382 13,000 1,920 Climbing FlightAware
19:15 26.3300 -82.0570 267° West 332 382 13,000 1,980 Level FlightAware
19:16 26.3220 -82.2010 266° West 345 397 16,700 2,280 Climbing FlightAware
19:17 26.3190 -82.2610 267° West 345 397 16,700  Level FlightAware
19:17 26.3170 -82.3220 268° West 345 397 16,700  Level FlightAware
19:18 26.3140 -82.3820 267° West 345 397 16,700  Level FlightAware
19:19 26.3110 -82.4430 267° West 345 397 16,700 4,860 Level FlightAware
19:19 26.3740 -82.5610 301° West 398 458 24,000 4,500 Climbing FlightAware
19:21 26.5130 -82.5740 355° North 418 481 25,700 960 Climbing FlightAware
19:21 26.5720 -82.5790 356° North 418 481 25,700 180 Level FlightAware
19:22 26.6950 -82.5880 356° North 437 503 26,000 240 Climbing FlightAware
19:23 26.7660 -82.5940 356° North 435 501 26,100 60 Climbing FlightAware
19:24 26.8700 -82.6020 356° North 435 501 26,100 -60 Level FlightAware
19:25 27.0310 -82.6150 356° North 437 503 26,000  Descending FlightAware
19:26 27.1510 -82.6240 356° North 438 504 26,100  Climbing FlightAware
19:27 27.2940 -82.6350 356° North 432 497 26,100  Level FlightAware
19:28 27.4360 -82.6470 356° North 432 497 26,100  Level FlightAware
19:30 27.6110 -82.6600 356° North 439 505 26,100 -60 Level FlightAware
19:30 27.6940 -82.6670 356° North 438 504 26,000  Descending FlightAware
19:31 27.7850 -82.6740 356° North 438 504 26,100  Climbing FlightAware
19:32 27.8660 -82.6800 356° North 431 496 26,000 -120 Descending FlightAware
19:32 27.9270 -82.6790 North 434 499 26,000 60 Level FlightAware
19:33 28.0090 -82.6760 North 433 498 26,100 60 Climbing FlightAware
19:34 28.1000 -82.6710 North 432 497 26,100  Level FlightAware
19:34 28.1830 -82.6670 North 432 497 26,100 -120 Level FlightAware
19:35 28.2640 -82.6630 North 433 498 26,000  Descending FlightAware
19:36 28.3930 -82.6740 356° North 458 527 26,100  Climbing FlightAware
19:37 28.4750 -82.7070 341° North 476 548 26,000 -120 Descending FlightAware
19:37 28.5600 -82.7420 340° North 474 545 26,000 60 Level FlightAware
19:38 28.6540 -82.7740 343° North 465 535 26,100 60 Climbing FlightAware
19:39 28.7120 -82.7870 349° North 466 536 26,100  Level FlightAware
19:39 28.8160 -82.8090 349° North 458 527 26,100 -120 Level FlightAware
19:40 28.9070 -82.8280 350° North 459 528 26,000  Descending FlightAware
19:41 28.9980 -82.8400 353° North 466 536 26,100 60 Climbing FlightAware
19:42 29.0870 -82.8410 359° North 467 537 26,100  Level FlightAware
19:42 29.1810 -82.8420 359° North 463 533 26,100  Level FlightAware
19:43 29.2480 -82.8370 North 452 520 26,100  Level FlightAware
19:43 29.3140 -82.8220 11° North 462 532 26,100  Level FlightAware
19:44 29.4010 -82.8030 11° North 462 532 26,100  Level FlightAware
19:45 29.5340 -82.7730 11° North 456 525 26,100  Level FlightAware
19:46 29.6050 -82.7570 11° North 456 525 26,100  Level FlightAware
19:46 29.6750 -82.7420 11° North 456 525 26,100 -120 Level FlightAware
19:47 29.8080 -82.7110 11° North 478 550 26,000 -180 Descending FlightAware
19:48 29.9210 -82.6860 11° North 483 556 25,900 -120 Descending FlightAware
19:49 29.9960 -82.6690 11° North 483 556 25,900  Level FlightAware
19:50 30.0890 -82.6480 11° North 483 556 25,900  Level FlightAware
19:50 30.1640 -82.6310 11° North 483 556 25,900  Level FlightAware
19:51 30.2200 -82.6190 10° North 483 556 25,900  Level FlightAware
19:51 30.2940 -82.6020 11° North 483 556 25,900 -660 Level FlightAware
19:52 30.4394 -82.5672 11° North 470 541 25,000 -540 Descending Jacksonville Center
19:53 30.5689 -82.5500 North 465 535 25,000  Level Jacksonville Center
19:54 30.6983 -82.5472 North 465 535 25,000  Level Jacksonville Center
19:55 30.8278 -82.5394 North 465 535 25,000  Level Jacksonville Center
19:56 30.9489 -82.5364 North 449 517 25,000  Level Jacksonville Center
19:57 31.0678 -82.5286 North 435 501 25,000  Level Jacksonville Center
19:58 31.1847 -82.5258 North 419 482 25,000  Level Jacksonville Center
19:59 31.2994 -82.5231 North 419 482 25,000  Level Jacksonville Center
20:01 31.5617 -82.5083 North 421 484 25,000  Level Atlanta Center
20:02 31.6783 -82.4869 North 421 484 25,000  Level Atlanta Center
20:03 31.7908 -82.4703 North 421 484 25,000  Level Atlanta Center
20:04 31.9056 -82.4536 North 421 484 25,000  Level Atlanta Center
20:11 32.6400 -82.3350 North 435 501 25,000 -180 Level FlightAware
20:12 32.8350 -82.3040 North 428 493 24,000 -360 Descending FlightAware
20:14 32.9730 -82.2820 North 426 490 24,100  Climbing FlightAware
20:15 33.1560 -82.2520 North 425 489 24,100 -60 Level FlightAware
20:15 33.1989 -82.2439 North 423 487 24,000 -120 Descending Atlanta Center
20:16 33.3175 -82.2267 North 428 493 24,000  Level Atlanta Center
20:17 33.4319 -82.2067 North 423 487 24,000  Level Atlanta Center
20:18 33.5508 -82.1894 North 423 487 24,000  Level Atlanta Center
20:19 33.6597 -82.2269 344° North 409 471 24,000  Level Atlanta Center
20:20 33.7650 -82.2847 335° Northwest 404 465 24,000 -420 Level Atlanta Center
20:27 34.3670 -82.0090 335° Northwest 393 452 21,300 -720 Descending FlightAware
20:28 34.4530 -81.8990 47° Northeast 380 437 18,800 -2,220 Descending FlightAware
20:29 34.4530 -81.9000 270° West 372 428 16,600 -2,160 Descending FlightAware
20:30 34.6110 -81.7000 46° Northeast 355 409 13,800 -1,440 Descending FlightAware
20:31 34.6490 -81.6510 47° Northeast 355 409 13,800  Level FlightAware
20:32 34.6980 -81.5900 46° Northeast 355 409 13,800 -1,620 Level FlightAware
20:32 34.7575 -81.5156 46° Northeast 286 329 11,100 -1,860 Descending Atlanta Center
20:33 34.7869 -81.4286 68° East 281 323 10,300 -1,320 Descending Atlanta Center
20:34 34.7933 -81.3375 85° East 293 337 8,600 -1,560 Descending Atlanta Center
20:35 34.8017 -81.2411 84° East 281 323 7,200 -780 Descending Atlanta Center
20:36 34.8100 -81.1547 83° East 274 315 7,000 -120 Descending Atlanta Center
20:37 34.8203 -81.0608 82° East 274 315 7,000  Level Atlanta Center
20:38 34.8289 -80.9769 83° East 225 259 7,000  Level Atlanta Center
20:39 34.8844 -80.9522 20° North 203 234 7,000 -180 Level Atlanta Center
20:41 34.9658 -80.9492 North 218 251 6,600 -840 Descending Atlanta Center
20:41 35.0075 -80.9503 359° North 165 190 5,400 -1,680 Descending Atlanta Center
20:42 35.0536 -80.9561 354° North 163 188 3,600 -1,800 Descending Atlanta Center